THOR ABLESTAR R/B, 47

Orbit data source: Space-Track

THOR ABLESTAR R/B, 47 is space debris in LEO originally from a launch on Wed, 22 Jun 1960 UTC launched from the Air Force Eastern Test Range (AFETR). Debris objects in space refer to the collection of defunct objects orbiting the Earth. Examples of debris include non-operational satellites, rocket bodies, and fragments generated from explosions, collisions, or faulty payload assembly.

Loading next visibility...
Identifier
47, 1960-007C
Orbit
LEO
Country
Flag of USUS
Related business
Manufacturer
Aerojet
Mission
Spacecraft
Bus & Motor
ABLESTAR, Unknown motor
Mass
~600 kg wet, 600 kg dry
Launch date (UTC)
1960-06-22 (66 years ago)
Launch vehicle
Unknown
Launch site
Air Force Eastern Test Range (AFETR)
Object type
Payload
Rocket body
Debris
Shape & HBR
CYL, 1.1 m
Radar Cross Section
Large (>1 m²)

Expand to show TLE details & history
Last TLE update: 9 hours ago

TLE from 9 hours ago
0 THOR ABLESTAR R/B
1 00047U 60007C   26266.85345507  .00000303  00000-0  89451-4 0  9990
2 00047  66.6639 141.3963 0211215  64.4571 297.8206 14.45394103465064
Epoch: 2026-09-23T20:28Z
TLE epoch observation values (Epoch: 2026-09-23T20:28:58.518Z)
Latitude
-0.00007°
Longitude
-168.54617°
Altitude
675.189 km
Speed
7.555 km/s
True Right ascension
09h 25m 35s
True Declination
0° 00' 00"
Sunlit
Object was in daylight at epoch
Visualization orbit readout
Latitude
Unknown
Longitude
Unknown
Altitude
Unknown
Speed
Unknown
Apparent Right ascension
Unknown
Apparent Declination
Unknown
Sunlit
N/A
Visualization observer readout
Local Sidereal Time
22:23:13
Azimuth
Unknown
Elevation
Unknown
Doppler factor
Unknown
Orbital elements
Apogee altitude
889.425 km
Perigee altitude
588.772 km
Semi-major axis
7,117.235 km
Eccentricity
0.02112
Inclination
66.6639°
RAAN
141.3963°
Arg. of periapsis
64.4571°
True anomaly
295.65384°
Mean anomaly
297.8206°
Eccentric anomaly
296.73984°
Mean motion
3.61473 °/min
Orbital period
99.59 mins
BSTAR
0.000089451
Loading maneuver chart data...
Computing Atmospheric mass density...
Loading historical data...
Loading historical data...
Loading historical data...
Loading historical data...
Loading historical data...
Loading historical data...
Loading historical data...

Documentation

Showing up to 5 results
|